Content
SEND FEEDBACK

Daily
Averages
Monthly
Summary
United States of America

TOMBSTONE, ARIZONA


Home > North America > United States > Arizona
Elevation: 4392 feet     Latitude: 31 43N     Longitude: 110 04W

WEATHER
 
SELECT A DAY
Number of Records: 122,256;   Date Range: 1/3/95 - 9/16/14
 
SHARE

PRINT THIS DATA

[ ← Previous Day ]
WEATHER ALMANAC - JUNE 12, 2013
[ Next Day → ]
[ °C ]   °F
Weather ElementAverageHighLow
Temperature87.5 °F100.4 °F (2:55 pm)71.6 °F (4:55 am)
Dewpoint25.1 °F28.4 °F (7:55 am)21.2 °F (1:55 pm)
Humidity11.1 %18 % (3:55 am)6 % (1:55 pm)
Barometer29.87 in29.96 in (7:55 am)29.81 in (5:55 pm)
Wind Speed10.9 mph19.6 mph (7:55 pm)
Wind Gust23 mph (4:55 pm)
Weather ElementAverage
Visibility10 mi
Wind DirectionSSW (195.2 °)

Weather ElementTotal
Precipitation---
Cooling Degree Days21 (Base 65)
Growing Degree Days36 (Base 50)
Averaged from 23 records on June 12, 2013
WEATHER CONDITIONS BREAKOUT
WIND DIRECTION BREAKOUT
WEATHER BY HOUR - JUNE 12, 2013
[ °C ]   °F
Local TimeTemperatureDewpointHumidityBarometerVisibilityWind DirectionWind SpeedGust SpeedPrecipitationEventsConditions
1:55 AM78.8 °F24.8 °F14 %29.86 in10.0 miWest (260°)12.7 mphPartly Cloudy
2:55 AM78.8 °F24.8 °F14 %29.87 in10.0 miWSW (250°)9.2 mphPartly Cloudy
3:55 AM73.4 °F26.6 °F18 %29.88 in10.0 miWest (280°)8.1 mphPartly Cloudy
4:55 AM71.6 °F24.8 °F17 %29.91 in10.0 miSSW (200°)5.8 mphMostly Cloudy
5:55 AM75.2 °F24.8 °F15 %29.92 in10.0 miWSW (250°)4.6 mphScattered Clouds
6:55 AM77.0 °F26.6 °F16 %29.93 in10.0 miVariable2.3 mphScattered Clouds
7:55 AM80.6 °F28.4 °F15 %29.96 in10.0 miVariable4.6 mphScattered Clouds
8:55 AM87.8 °F26.6 °F11 %29.94 in10.0 miWNW (290°)9.2 mphScattered Clouds
9:55 AM89.6 °F26.6 °F10 %29.94 in10.0 miVariable4.6 mphScattered Clouds
10:55 AM93.2 °F24.8 °F9 %29.92 in10.0 miVariable5.8 mphScattered Clouds
11:55 AM96.8 °F24.8 °F8 %29.91 in10.0 miVariable6.9 mphScattered Clouds
12:55 PM96.8 °F23.0 °F7 %29.88 in10.0 miVariable6.9 mphScattered Clouds
1:55 PM98.6 °F21.2 °F6 %29.86 in10.0 miVariable6.9 mphScattered Clouds
2:55 PM100.4 °F23.0 °F6 %29.83 in10.0 miNW (310°)11.5 mphPartly Cloudy
3:55 PM98.6 °F23.0 °F7 %29.83 in10.0 miWNW (300°)13.8 mph21.9 mphPartly Cloudy
4:55 PM98.6 °F24.8 °F7 %29.82 in10.0 miNNW (340°)18.4 mph23.0 mphMostly Cloudy
5:55 PM96.8 °F24.8 °F8 %29.81 in10.0 miNW (310°)18.4 mphMostly Cloudy
6:55 PM93.2 °F24.8 °F9 %29.82 in10.0 miNW (310°)18.4 mphMostly Cloudy
7:55 PM89.6 °F24.8 °F10 %29.83 in10.0 miWNW (300°)19.6 mphScattered Clouds
8:55 PM87.8 °F24.8 °F10 %29.83 in10.0 miWNW (290°)15.0 mph23.0 mphPartly Cloudy
9:55 PM84.2 °F24.8 °F11 %29.85 in10.0 miWest (270°)17.3 mph23.0 mphPartly Cloudy
10:55 PM82.4 °F26.6 °F13 %29.85 in10.0 miWest (270°)16.1 mph21.9 mphPartly Cloudy
11:55 PM82.4 °F28.4 °F14 %29.87 in10.0 miWest (260°)15.0 mphPartly Cloudy
Hourly data recorded from KFHU, located miles away from Tombstone, Arizona







STORIES FROM OUR PARTNERS